Location: Bagnolo San Vito
(45.0833°N, 10.8833°E)
Time: 23:08:21
(UTC+00:00)

Meteor 1-11 Rocket - Pass Details

Date: 03 March 2021
Orbit: 831 x 916 km, 81.2° (Epoch: 17 April)

Event Time Altitude Azimuth Distance (km) Brightness Sun altitude
Rises 19:23:01 0° 193° (SSW) 3,468 6.9 -24.6°
Reaches altitude 10° 19:25:28 10° 194° (SSW) 2,521 6.1 -25.1°
Maximum altitude 19:31:12 78° 281° (WNW) 886 3.8 -26.0°
Drops below altitude 10° 19:36:51 10° 8° (N) 2,483 6.2 -27.0°
Sets 19:39:15 0° 10° (N) 3,412 7.0 -27.4°
